Time,TemperatureF,DewpointF,PressureIn,WindDirection,WindDirectionDegrees,WindSpeedMPH,WindSpeedGustMPH,Humidity,HourlyPrecipIn,Conditions,Clouds,dailyrainin,SoftwareType,DateUTC
2017-03-29 00:05:00,34.2,31.0,30.17,NNE,23,0.0,-999.0,88,0.00,,,0.00,,2017-03-29 05:05:00,
2017-03-29 00:11:00,34.2,31.0,30.18,NNE,23,0.0,-999.0,90,0.00,,,0.00,,2017-03-29 05:11:00,
2017-03-29 00:16:00,34.2,32.0,30.18,NNE,23,0.0,-999.0,91,0.00,,,0.00,,2017-03-29 05:16:00,
2017-03-29 00:24:00,34.0,30.0,30.18,NNE,23,0.0,-999.0,88,0.00,,,0.00,,2017-03-29 05:24:00,
2017-03-29 00:29:00,33.4,30.0,30.18,NNE,23,0.0,-999.0,88,0.00,,,0.00,,2017-03-29 05:29:00,
2017-03-29 00:35:00,33.2,30.0,30.18,NNE,23,0.0,-999.0,91,0.00,,,0.00,,2017-03-29 05:35:00,
2017-03-29 00:40:00,33.2,30.0,30.18,NNE,23,0.0,-999.0,91,0.00,,,0.00,,2017-03-29 05:40:00,
2017-03-29 00:46:00,33.4,30.0,30.18,NNE,23,0.0,-999.0,90,0.00,,,0.00,,2017-03-29 05:46:00,
2017-03-29 00:52:00,33.2,30.0,30.18,NNE,23,0.0,-999.0,90,0.00,,,0.00,,2017-03-29 05:52:00,
2017-03-29 00:58:00,33.2,30.0,30.17,NNE,23,0.0,-999.0,91,0.00,,,0.00,,2017-03-29 05:58:00,
2017-03-29 01:03:00,33.2,31.0,30.17,NNE,23,0.0,-999.0,91,0.00,,,0.00,,2017-03-29 06:03:00,
2017-03-29 01:09:00,33.2,31.0,30.17,NNE,23,0.0,-999.0,91,0.00,,,0.00,,2017-03-29 06:09:00,
2017-03-29 01:14:00,33.4,31.0,30.16,NNE,23,0.0,-999.0,91,0.00,,,0.00,,2017-03-29 06:14:00,
2017-03-29 01:20:00,33.4,31.0,30.16,NNE,23,0.0,-999.0,91,0.00,,,0.00,,2017-03-29 06:20:00,
2017-03-29 01:25:00,33.2,30.0,30.16,NNE,23,0.0,-999.0,91,0.00,,,0.00,,2017-03-29 06:25:00,
2017-03-29 01:31:00,33.0,30.0,30.16,NNE,23,0.0,-999.0,91,0.00,,,0.00,,2017-03-29 06:31:00,
2017-03-29 01:36:00,33.0,30.0,30.17,NNE,23,0.0,-999.0,91,0.00,,,0.00,,2017-03-29 06:36:00,
2017-03-29 01:42:00,33.5,31.0,30.17,NNE,23,0.0,-999.0,91,0.00,,,0.00,,2017-03-29 06:42:00,
2017-03-29 01:48:00,33.5,30.0,30.17,NNE,23,0.0,-999.0,90,0.00,,,0.00,,2017-03-29 06:48:00,
2017-03-29 01:53:00,34.0,31.0,30.18,NNE,23,0.0,-999.0,88,0.00,,,0.00,,2017-03-29 06:53:00,
2017-03-29 01:54:00,34.2,31.0,30.17,NNE,23,0.0,-999.0,88,0.00,,,0.00,,2017-03-29 06:54:00,
2017-03-29 02:00:00,33.4,30.0,30.17,NNE,23,0.0,-999.0,88,0.00,,,0.00,,2017-03-29 07:00:00,
2017-03-29 02:05:00,33.0,30.0,30.18,NNE,23,0.0,-999.0,88,0.00,,,0.00,,2017-03-29 07:05:00,
2017-03-29 02:11:00,32.6,29.0,30.17,NNE,23,0.0,-999.0,88,0.00,,,0.00,,2017-03-29 07:11:00,
2017-03-29 02:17:00,32.5,29.0,30.18,NNE,23,0.0,-999.0,88,0.00,,,0.00,,2017-03-29 07:17:00,
2017-03-29 02:22:00,32.2,29.0,30.17,NNE,23,0.0,-999.0,88,0.00,,,0.00,,2017-03-29 07:22:00,
2017-03-29 02:28:00,31.9,29.0,30.17,NNE,23,0.0,-999.0,90,0.00,,,0.00,,2017-03-29 07:28:00,
2017-03-29 02:33:00,31.9,29.0,30.18,NNE,23,0.0,-999.0,90,0.00,,,0.00,,2017-03-29 07:33:00,
2017-03-29 02:39:00,31.7,29.0,30.17,NNE,23,0.0,-999.0,91,0.00,,,0.00,,2017-03-29 07:39:00,
2017-03-29 02:44:00,31.7,29.0,30.17,NNE,23,1.0,-999.0,91,0.00,,,0.00,,2017-03-29 07:44:00,
2017-03-29 02:50:00,31.9,30.0,30.18,NNE,23,0.0,-999.0,93,0.00,,,0.00,,2017-03-29 07:50:00,
2017-03-29 02:56:00,31.9,30.0,30.18,NW,315,2.0,-999.0,93,0.00,,,0.00,,2017-03-29 07:56:00,
2017-03-29 03:02:00,32.4,31.0,30.18,NW,315,1.0,-999.0,95,0.00,,,0.00,,2017-03-29 08:02:00,
2017-03-29 03:08:00,32.5,31.0,30.19,NNW,338,3.0,-999.0,95,0.00,,,0.00,,2017-03-29 08:08:00,
2017-03-29 03:13:00,32.9,31.0,30.19,NNW,338,1.0,-999.0,95,0.00,,,0.00,,2017-03-29 08:13:00,
2017-03-29 03:19:00,32.9,31.0,30.18,West,270,1.0,-999.0,95,0.00,,,0.00,,2017-03-29 08:19:00,
2017-03-29 03:24:00,32.9,31.0,30.18,NW,315,2.0,-999.0,95,0.00,,,0.00,,2017-03-29 08:24:00,
2017-03-29 03:30:00,32.6,31.0,30.19,NNW,338,1.0,-999.0,95,0.00,,,0.00,,2017-03-29 08:30:00,
2017-03-29 03:35:00,32.6,31.0,30.18,NNW,338,0.0,-999.0,95,0.00,,,0.00,,2017-03-29 08:35:00,
2017-03-29 03:41:00,32.4,30.0,30.18,NNW,338,0.0,-999.0,93,0.00,,,0.00,,2017-03-29 08:41:00,
2017-03-29 03:47:00,32.2,30.0,30.18,NW,315,0.0,-999.0,93,0.00,,,0.00,,2017-03-29 08:47:00,
2017-03-29 03:52:00,32.2,30.0,30.18,NNW,338,1.0,-999.0,93,0.00,,,0.00,,2017-03-29 08:52:00,
2017-03-29 03:58:00,31.9,30.0,30.18,NNE,23,1.0,-999.0,93,0.00,,,0.00,,2017-03-29 08:58:00,
2017-03-29 04:03:00,31.9,30.0,30.19,North,0,0.0,-999.0,93,0.00,,,0.00,,2017-03-29 09:03:00,
2017-03-29 04:04:00,31.9,30.0,30.19,North,0,0.0,-999.0,93,0.00,,,0.00,,2017-03-29 09:04:00,
2017-03-29 04:11:00,31.7,30.0,30.19,NW,315,1.0,-999.0,93,0.00,,,0.00,,2017-03-29 09:11:00,
2017-03-29 04:16:00,31.7,30.0,30.20,NNW,338,0.0,-999.0,93,0.00,,,0.00,,2017-03-29 09:16:00,
2017-03-29 04:22:00,31.6,29.0,30.20,NNW,338,0.0,-999.0,93,0.00,,,0.00,,2017-03-29 09:22:00,
2017-03-29 04:27:00,31.5,29.0,30.20,NNW,338,0.0,-999.0,93,0.00,,,0.00,,2017-03-29 09:27:00,
2017-03-29 04:33:00,31.5,29.0,30.20,NNW,338,0.0,-999.0,93,0.00,,,0.00,,2017-03-29 09:33:00,
2017-03-29 04:38:00,31.5,29.0,30.20,NNW,338,0.0,-999.0,93,0.00,,,0.00,,2017-03-29 09:38:00,
2017-03-29 04:44:00,31.5,29.0,30.20,NNW,338,0.0,-999.0,93,0.00,,,0.00,,2017-03-29 09:44:00,
2017-03-29 04:50:00,31.5,29.0,30.20,NNE,23,0.0,-999.0,93,0.00,,,0.00,,2017-03-29 09:50:00,
2017-03-29 04:56:00,31.5,29.0,30.20,NNE,23,0.0,-999.0,93,0.00,,,0.00,,2017-03-29 09:56:00,
2017-03-29 05:01:00,31.2,29.0,30.20,NNE,23,0.0,-999.0,93,0.00,,,0.00,,2017-03-29 10:01:00,
2017-03-29 05:07:00,31.1,29.0,30.21,NNE,23,0.0,-999.0,93,0.00,,,0.00,,2017-03-29 10:07:00,
2017-03-29 05:12:00,30.8,29.0,30.21,NNE,23,0.0,-999.0,93,0.00,,,0.00,,2017-03-29 10:12:00,
2017-03-29 05:18:00,30.8,29.0,30.21,NNE,23,0.0,-999.0,93,0.00,,,0.00,,2017-03-29 10:18:00,
2017-03-29 05:23:00,30.7,28.0,30.21,NNE,23,0.0,-999.0,93,0.00,,,0.00,,2017-03-29 10:23:00,
2017-03-29 05:29:00,30.5,28.0,30.21,NW,315,0.0,-999.0,93,0.00,,,0.00,,2017-03-29 10:29:00,
2017-03-29 05:35:00,30.5,28.0,30.22,WNW,293,0.0,-999.0,93,0.00,,,0.00,,2017-03-29 10:35:00,
2017-03-29 05:40:00,30.5,28.0,30.22,NW,315,0.0,-999.0,93,0.00,,,0.00,,2017-03-29 10:40:00,
2017-03-29 05:46:00,30.3,28.0,30.22,NW,315,0.0,-999.0,93,0.00,,,0.00,,2017-03-29 10:46:00,
2017-03-29 05:51:00,30.3,28.0,30.22,NW,315,0.0,-999.0,93,0.00,,,0.00,,2017-03-29 10:51:00,
2017-03-29 05:58:00,30.0,28.0,30.22,NNW,338,0.0,-999.0,93,0.00,,,0.00,,2017-03-29 10:58:00,
2017-03-29 06:03:00,30.1,28.0,30.22,NNE,23,0.0,-999.0,93,0.00,,,0.00,,2017-03-29 11:03:00,
2017-03-29 06:09:00,30.1,28.0,30.23,NNE,23,0.0,-999.0,93,0.00,,,0.00,,2017-03-29 11:09:00,
2017-03-29 06:15:00,30.1,28.0,30.23,NE,45,0.0,-999.0,93,0.00,,,0.00,,2017-03-29 11:15:00,
2017-03-29 06:19:00,30.1,28.0,30.23,NNE,23,0.0,-999.0,93,0.00,,,0.00,,2017-03-29 11:19:00,
2017-03-29 06:24:00,30.3,29.0,30.23,NNE,23,0.0,-999.0,95,0.00,,,0.00,,2017-03-29 11:24:00,
2017-03-29 06:30:00,30.3,29.0,30.23,East,90,0.0,-999.0,95,0.00,,,0.00,,2017-03-29 11:30:00,
2017-03-29 06:36:00,30.3,29.0,30.23,NNE,23,1.0,-999.0,95,0.00,,,0.00,,2017-03-29 11:36:00,
2017-03-29 06:41:00,30.3,29.0,30.23,West,270,0.0,-999.0,95,0.00,,,0.00,,2017-03-29 11:41:00,
2017-03-29 06:47:00,30.3,29.0,30.23,NW,315,0.0,-999.0,95,0.00,,,0.00,,2017-03-29 11:47:00,
2017-03-29 06:52:00,30.3,29.0,30.24,NNE,23,0.0,-999.0,95,0.00,,,0.00,,2017-03-29 11:52:00,
2017-03-29 06:58:00,30.3,29.0,30.23,NE,45,1.0,-999.0,95,0.00,,,0.00,,2017-03-29 11:58:00,
2017-03-29 07:03:00,30.5,29.0,30.24,NW,315,1.0,-999.0,95,0.00,,,0.00,,2017-03-29 12:03:00,
2017-03-29 07:09:00,30.8,29.0,30.24,NNE,23,0.0,-999.0,95,0.00,,,0.00,,2017-03-29 12:09:00,
2017-03-29 07:14:00,31.2,30.0,30.24,NW,315,1.0,-999.0,95,0.00,,,0.00,,2017-03-29 12:14:00,
2017-03-29 07:20:00,32.6,31.0,30.24,ENE,68,1.0,-999.0,95,0.00,,,0.00,,2017-03-29 12:20:00,
2017-03-29 07:26:00,34.0,31.0,30.24,NW,315,3.0,-999.0,91,0.00,,,0.00,,2017-03-29 12:26:00,
2017-03-29 07:31:00,34.0,31.0,30.23,NE,45,1.0,-999.0,91,0.00,,,0.00,,2017-03-29 12:31:00,
2017-03-29 07:37:00,34.2,31.0,30.24,ENE,68,0.0,-999.0,90,0.00,,,0.00,,2017-03-29 12:37:00,
2017-03-29 07:42:00,34.7,32.0,30.23,NE,45,1.0,-999.0,90,0.00,,,0.00,,2017-03-29 12:42:00,
2017-03-29 07:48:00,35.0,32.0,30.23,ENE,68,1.0,-999.0,88,0.00,,,0.00,,2017-03-29 12:48:00,
2017-03-29 07:53:00,35.1,32.0,30.23,NNW,338,3.0,-999.0,88,0.00,,,0.00,,2017-03-29 12:53:00,
2017-03-29 07:59:00,35.7,32.0,30.23,NE,45,0.0,-999.0,86,0.00,,,0.00,,2017-03-29 12:59:00,
2017-03-29 08:04:00,36.2,32.0,30.24,ENE,68,2.0,-999.0,86,0.00,,,0.00,,2017-03-29 13:04:00,
2017-03-29 08:10:00,36.5,32.0,30.23,NW,315,1.0,-999.0,85,0.00,,,0.00,,2017-03-29 13:10:00,
2017-03-29 08:15:00,36.9,32.0,30.23,ESE,113,1.0,-999.0,83,0.00,,,0.00,,2017-03-29 13:15:00,
2017-03-29 08:21:00,37.4,33.0,30.24,ESE,113,1.0,-999.0,83,0.00,,,0.00,,2017-03-29 13:21:00,
2017-03-29 08:27:00,37.7,32.0,30.24,ENE,68,1.0,-999.0,81,0.00,,,0.00,,2017-03-29 13:27:00,
2017-03-29 08:32:00,37.8,32.0,30.24,ENE,68,1.0,-999.0,81,0.00,,,0.00,,2017-03-29 13:32:00,
2017-03-29 08:38:00,37.8,32.0,30.23,NE,45,1.0,-999.0,81,0.00,,,0.00,,2017-03-29 13:38:00,
2017-03-29 08:44:00,38.0,33.0,30.24,NW,315,2.0,-999.0,81,0.00,,,0.00,,2017-03-29 13:44:00,
2017-03-29 08:49:00,38.2,33.0,30.23,NNW,338,2.0,-999.0,81,0.00,,,0.00,,2017-03-29 13:49:00,
2017-03-29 08:55:00,38.7,33.0,30.23,NNE,23,1.0,-999.0,81,0.00,,,0.00,,2017-03-29 13:55:00,
2017-03-29 09:00:00,38.7,33.0,30.24,NNW,338,2.0,-999.0,80,0.00,,,0.00,,2017-03-29 14:00:00,
2017-03-29 09:06:00,38.7,33.0,30.23,NW,315,2.0,-999.0,80,0.00,,,0.00,,2017-03-29 14:06:00,
2017-03-29 09:12:00,39.4,33.0,30.23,NE,45,1.0,-999.0,79,0.00,,,0.00,,2017-03-29 14:12:00,
2017-03-29 09:17:00,39.5,33.0,30.22,NNW,338,3.0,-999.0,78,0.00,,,0.00,,2017-03-29 14:17:00,
2017-03-29 09:23:00,39.9,33.0,30.23,NNE,23,1.0,-999.0,76,0.00,,,0.00,,2017-03-29 14:23:00,
2017-03-29 09:29:00,40.2,33.0,30.23,NE,45,2.0,-999.0,78,0.00,,,0.00,,2017-03-29 14:29:00,
2017-03-29 09:35:00,40.2,33.0,30.22,NNE,23,1.0,-999.0,76,0.00,,,0.00,,2017-03-29 14:35:00,
2017-03-29 09:41:00,40.5,33.0,30.23,East,90,1.0,-999.0,76,0.00,,,0.00,,2017-03-29 14:41:00,
2017-03-29 09:46:00,40.9,34.0,30.23,ESE,113,1.0,-999.0,75,0.00,,,0.00,,2017-03-29 14:46:00,
2017-03-29 09:52:00,41.1,33.0,30.23,North,0,2.0,-999.0,75,0.00,,,0.00,,2017-03-29 14:52:00,
2017-03-29 09:57:00,41.4,34.0,30.24,NE,45,1.0,-999.0,75,0.00,,,0.00,,2017-03-29 14:57:00,
2017-03-29 10:03:00,41.5,34.0,30.24,NNE,23,3.0,-999.0,75,0.00,,,0.00,,2017-03-29 15:03:00,
2017-03-29 10:08:00,41.5,33.0,30.25,North,0,2.0,-999.0,74,0.00,,,0.00,,2017-03-29 15:08:00,
2017-03-29 10:14:00,41.5,34.0,30.25,NE,45,1.0,-999.0,75,0.00,,,0.00,,2017-03-29 15:14:00,
2017-03-29 10:21:00,41.9,34.0,30.25,NE,45,2.0,-999.0,75,0.00,,,0.00,,2017-03-29 15:21:00,
2017-03-29 10:26:00,41.9,34.0,30.25,NE,45,2.0,-999.0,74,0.00,,,0.00,,2017-03-29 15:26:00,
2017-03-29 10:32:00,42.1,34.0,30.26,East,90,1.0,-999.0,74,0.00,,,0.00,,2017-03-29 15:32:00,
2017-03-29 10:38:00,42.3,34.0,30.25,North,0,1.0,-999.0,74,0.00,,,0.00,,2017-03-29 15:38:00,
2017-03-29 10:43:00,42.4,34.0,30.25,NNE,23,2.0,-999.0,74,0.00,,,0.00,,2017-03-29 15:43:00,
2017-03-29 10:49:00,42.4,34.0,30.25,ENE,68,2.0,-999.0,73,0.00,,,0.00,,2017-03-29 15:49:00,
2017-03-29 10:55:00,42.4,34.0,30.25,NE,45,2.0,-999.0,73,0.00,,,0.00,,2017-03-29 15:55:00,
2017-03-29 11:01:00,43.0,35.0,30.25,West,270,1.0,-999.0,74,0.00,,,0.00,,2017-03-29 16:01:00,
2017-03-29 11:06:00,43.2,35.0,30.24,East,90,2.0,-999.0,74,0.00,,,0.00,,2017-03-29 16:06:00,
2017-03-29 11:12:00,43.2,35.0,30.25,NE,45,2.0,-999.0,73,0.00,,,0.00,,2017-03-29 16:12:00,
2017-03-29 11:17:00,43.9,35.0,30.25,NW,315,2.0,-999.0,73,0.00,,,0.00,,2017-03-29 16:17:00,
2017-03-29 11:23:00,43.9,35.0,30.25,WNW,293,2.0,-999.0,73,0.00,,,0.00,,2017-03-29 16:23:00,
2017-03-29 11:29:00,43.6,35.0,30.25,NW,315,3.0,-999.0,73,0.00,,,0.00,,2017-03-29 16:29:00,
2017-03-29 11:35:00,43.4,35.0,30.25,NW,315,3.0,-999.0,73,0.00,,,0.00,,2017-03-29 16:35:00,
2017-03-29 11:40:00,43.6,35.0,30.24,East,90,1.0,-999.0,73,0.00,,,0.00,,2017-03-29 16:40:00,
2017-03-29 11:46:00,44.0,35.0,30.24,NE,45,2.0,-999.0,73,0.00,,,0.00,,2017-03-29 16:46:00,
2017-03-29 11:51:00,44.0,35.0,30.24,West,270,2.0,-999.0,71,0.00,,,0.00,,2017-03-29 16:51:00,
2017-03-29 11:57:00,43.9,35.0,30.24,NE,45,3.0,-999.0,70,0.00,,,0.00,,2017-03-29 16:57:00,
2017-03-29 12:03:00,44.2,35.0,30.24,NW,315,2.0,-999.0,71,0.00,,,0.00,,2017-03-29 17:03:00,
2017-03-29 12:09:00,44.6,35.0,30.24,ENE,68,2.0,-999.0,70,0.00,,,0.00,,2017-03-29 17:09:00,
2017-03-29 12:14:00,44.6,35.0,30.24,East,90,2.0,-999.0,70,0.00,,,0.00,,2017-03-29 17:14:00,
2017-03-29 12:20:00,44.6,35.0,30.24,NE,45,2.0,-999.0,70,0.00,,,0.00,,2017-03-29 17:20:00,
2017-03-29 12:26:00,44.8,35.0,30.24,NE,45,1.0,-999.0,70,0.00,,,0.00,,2017-03-29 17:26:00,
2017-03-29 12:31:00,44.8,35.0,30.24,East,90,2.0,-999.0,69,0.00,,,0.00,,2017-03-29 17:31:00,
2017-03-29 12:37:00,45.0,35.0,30.24,NNW,338,4.0,-999.0,69,0.00,,,0.00,,2017-03-29 17:37:00,
2017-03-29 12:43:00,44.6,35.0,30.24,East,90,1.0,-999.0,70,0.00,,,0.00,,2017-03-29 17:43:00,
2017-03-29 12:48:00,45.0,35.0,30.24,NNW,338,1.0,-999.0,69,0.00,,,0.00,,2017-03-29 17:48:00,
2017-03-29 12:54:00,45.0,35.0,30.24,NE,45,2.0,-999.0,68,0.00,,,0.00,,2017-03-29 17:54:00,
2017-03-29 13:00:00,45.0,34.0,30.24,ENE,68,1.0,-999.0,66,0.00,,,0.00,,2017-03-29 18:00:00,
2017-03-29 13:05:00,45.0,34.0,30.24,NE,45,1.0,-999.0,66,0.00,,,0.00,,2017-03-29 18:05:00,
2017-03-29 13:11:00,44.6,34.0,30.24,NE,45,2.0,-999.0,66,0.00,,,0.00,,2017-03-29 18:11:00,
2017-03-29 13:16:00,45.0,35.0,30.24,East,90,4.0,-999.0,68,0.00,,,0.00,,2017-03-29 18:16:00,
2017-03-29 13:18:00,45.0,34.0,30.25,NNE,23,1.0,-999.0,66,0.00,,,0.00,,2017-03-29 18:18:00,
2017-03-29 13:24:00,44.8,34.0,30.24,NNE,23,2.0,-999.0,65,0.00,,,0.00,,2017-03-29 18:24:00,
2017-03-29 13:29:00,45.0,34.0,30.24,NNE,23,3.0,-999.0,65,0.00,,,0.00,,2017-03-29 18:29:00,
2017-03-29 13:35:00,45.0,34.0,30.24,NNW,338,1.0,-999.0,65,0.00,,,0.00,,2017-03-29 18:35:00,
2017-03-29 13:40:00,44.8,34.0,30.23,NNE,23,1.0,-999.0,65,0.00,,,0.00,,2017-03-29 18:40:00,
2017-03-29 13:46:00,44.8,34.0,30.24,East,90,1.0,-999.0,65,0.00,,,0.00,,2017-03-29 18:46:00,
2017-03-29 13:52:00,44.8,34.0,30.24,NE,45,2.0,-999.0,65,0.00,,,0.00,,2017-03-29 18:52:00,
2017-03-29 13:57:00,45.0,34.0,30.24,NE,45,1.0,-999.0,65,0.00,,,0.00,,2017-03-29 18:57:00,
2017-03-29 14:03:00,45.0,34.0,30.23,ENE,68,3.0,-999.0,65,0.00,,,0.00,,2017-03-29 19:03:00,
2017-03-29 14:08:00,45.0,33.0,30.23,ESE,113,1.0,-999.0,65,0.00,,,0.00,,2017-03-29 19:08:00,
2017-03-29 14:14:00,45.0,34.0,30.24,NE,45,1.0,-999.0,65,0.00,,,0.00,,2017-03-29 19:14:00,
2017-03-29 14:19:00,45.0,33.0,30.23,NNE,23,2.0,-999.0,65,0.00,,,0.00,,2017-03-29 19:19:00,
2017-03-29 14:25:00,45.0,33.0,30.23,North,0,1.0,-999.0,63,0.00,,,0.00,,2017-03-29 19:25:00,
2017-03-29 14:30:00,45.0,33.0,30.22,NNW,338,2.0,-999.0,63,0.00,,,0.00,,2017-03-29 19:30:00,
2017-03-29 14:38:00,45.0,33.0,30.23,North,0,2.0,-999.0,63,0.00,,,0.00,,2017-03-29 19:38:00,
2017-03-29 14:43:00,45.0,32.0,30.23,ENE,68,4.0,-999.0,61,0.00,,,0.00,,2017-03-29 19:43:00,
2017-03-29 14:49:00,45.2,33.0,30.22,WNW,293,2.0,-999.0,63,0.00,,,0.00,,2017-03-29 19:49:00,
2017-03-29 14:54:00,45.2,33.0,30.22,East,90,2.0,-999.0,63,0.00,,,0.00,,2017-03-29 19:54:00,
2017-03-29 15:00:00,45.7,33.0,30.21,NNE,23,3.0,-999.0,63,0.00,,,0.00,,2017-03-29 20:00:00,
2017-03-29 15:06:00,45.0,33.0,30.21,NE,45,3.0,-999.0,63,0.00,,,0.00,,2017-03-29 20:06:00,
2017-03-29 15:11:00,45.0,33.0,30.21,NE,45,4.0,-999.0,63,0.00,,,0.00,,2017-03-29 20:11:00,
2017-03-29 15:17:00,45.0,33.0,30.21,NNE,23,5.0,-999.0,63,0.00,,,0.00,,2017-03-29 20:17:00,
2017-03-29 15:22:00,44.6,33.0,30.21,ENE,68,1.0,-999.0,65,0.00,,,0.00,,2017-03-29 20:22:00,
2017-03-29 15:28:00,44.6,33.0,30.21,NE,45,2.0,-999.0,65,0.00,,,0.00,,2017-03-29 20:28:00,
2017-03-29 15:33:00,45.0,33.0,30.20,NE,45,3.0,-999.0,65,0.00,,,0.00,,2017-03-29 20:33:00,
2017-03-29 15:39:00,44.4,32.0,30.20,NNE,23,2.0,-999.0,63,0.00,,,0.00,,2017-03-29 20:39:00,
2017-03-29 15:45:00,44.6,33.0,30.20,NE,45,1.0,-999.0,65,0.00,,,0.00,,2017-03-29 20:45:00,
2017-03-29 15:51:00,44.4,32.0,30.20,NNE,23,2.0,-999.0,63,0.00,,,0.00,,2017-03-29 20:51:00,
2017-03-29 15:56:00,44.0,33.0,30.19,NE,45,2.0,-999.0,65,0.00,,,0.00,,2017-03-29 20:56:00,
2017-03-29 16:02:00,44.0,33.0,30.18,ENE,68,2.0,-999.0,65,0.00,,,0.00,,2017-03-29 21:02:00,
2017-03-29 16:08:00,43.9,32.0,30.18,NE,45,1.0,-999.0,63,0.00,,,0.00,,2017-03-29 21:08:00,
2017-03-29 16:13:00,43.6,31.0,30.18,NW,315,3.0,-999.0,63,0.00,,,0.00,,2017-03-29 21:13:00,
2017-03-29 16:19:00,43.4,32.0,30.17,NNE,23,6.0,-999.0,65,0.00,,,0.00,,2017-03-29 21:19:00,
2017-03-29 16:24:00,43.4,32.0,30.17,North,0,4.0,-999.0,65,0.00,,,0.00,,2017-03-29 21:24:00,
2017-03-29 16:30:00,43.4,32.0,30.17,WNW,293,6.0,-999.0,65,0.00,,,0.00,,2017-03-29 21:30:00,
2017-03-29 16:36:00,43.0,32.0,30.17,NE,45,2.0,-999.0,65,0.00,,,0.00,,2017-03-29 21:36:00,
2017-03-29 16:42:00,43.0,32.0,30.16,NE,45,4.0,-999.0,66,0.00,,,0.00,,2017-03-29 21:42:00,
2017-03-29 16:47:00,42.7,32.0,30.16,NE,45,2.0,-999.0,65,0.00,,,0.00,,2017-03-29 21:47:00,
2017-03-29 16:53:00,42.7,32.0,30.16,NNW,338,3.0,-999.0,65,0.00,,,0.00,,2017-03-29 21:53:00,
2017-03-29 16:58:00,42.7,32.0,30.15,East,90,2.0,-999.0,65,0.00,,,0.00,,2017-03-29 21:58:00,
2017-03-29 17:04:00,42.5,32.0,30.15,North,0,2.0,-999.0,65,0.00,,,0.00,,2017-03-29 22:04:00,
2017-03-29 17:10:00,42.5,32.0,30.15,NNE,23,1.0,-999.0,65,0.00,,,0.00,,2017-03-29 22:10:00,
2017-03-29 17:16:00,42.4,32.0,30.14,NNW,338,2.0,-999.0,66,0.00,,,0.00,,2017-03-29 22:16:00,
2017-03-29 17:21:00,42.3,32.0,30.15,NNW,338,2.0,-999.0,68,0.00,,,0.00,,2017-03-29 22:21:00,
2017-03-29 17:27:00,41.9,32.0,30.14,East,90,3.0,-999.0,69,0.00,,,0.00,,2017-03-29 22:27:00,
2017-03-29 17:33:00,41.7,32.0,30.15,ESE,113,1.0,-999.0,69,0.00,,,0.00,,2017-03-29 22:33:00,
2017-03-29 17:39:00,41.4,32.0,30.15,NE,45,1.0,-999.0,70,0.00,,,0.00,,2017-03-29 22:39:00,
2017-03-29 17:44:00,41.1,32.0,30.14,NE,45,1.0,-999.0,70,0.00,,,0.00,,2017-03-29 22:44:00,
2017-03-29 17:50:00,40.7,32.0,30.14,East,90,2.0,-999.0,70,0.00,,,0.00,,2017-03-29 22:50:00,
2017-03-29 17:55:00,40.5,31.0,30.14,NE,45,1.0,-999.0,70,0.00,,,0.00,,2017-03-29 22:55:00,
2017-03-29 18:02:00,40.2,31.0,30.14,North,0,1.0,-999.0,71,0.00,,,0.00,,2017-03-29 23:02:00,
2017-03-29 18:08:00,40.0,32.0,30.14,NE,45,2.0,-999.0,73,0.00,,,0.00,,2017-03-29 23:08:00,
2017-03-29 18:13:00,40.0,32.0,30.13,NNE,23,3.0,-999.0,73,0.00,,,0.00,,2017-03-29 23:13:00,
2017-03-29 18:19:00,39.9,31.0,30.13,NE,45,1.0,-999.0,73,0.00,,,0.00,,2017-03-29 23:19:00,
2017-03-29 18:24:00,39.7,31.0,30.14,NNE,23,2.0,-999.0,73,0.00,,,0.00,,2017-03-29 23:24:00,
2017-03-29 18:30:00,39.5,31.0,30.15,NW,315,3.0,-999.0,74,0.00,,,0.00,,2017-03-29 23:30:00,